This is the latest recevied weather packets stored in our database for station/object JE7UPL-13. If no packets are shown the sender has not sent any weather packets the latest 10 day(s).
| Time | Temp. | Humidity | Pressure | Rain* | Wind** | Luminosity | Snow |
|---|---|---|---|---|---|---|---|
| 1788153306 | 78° F | 66% | 758.3 mmHg | 0 in | - | - | - |
| 1788152406 | 80° F | 62% | 758.1 mmHg | 0 in | - | - | - |
| 1788151506 | 78° F | 64% | 758.2 mmHg | 0 in | - | - | - |
| 1788150607 | 79° F | 64% | 758.3 mmHg | 0 in | - | - | - |
| 1788149706 | 78° F | 66% | 758.2 mmHg | 0 in | - | - | - |
| 1788148807 | 78° F | 65% | 758.3 mmHg | 0 in | - | - | - |
| 1788147906 | 79° F | 61% | 758.4 mmHg | 0 in | - | - | - |
| 1788147007 | 79° F | 63% | 758.5 mmHg | 0 in | - | - | - |
| 1788146106 | 77° F | 65% | 758.3 mmHg | 0 in | - | - | - |
| 1788145206 | 77° F | 64% | 758.4 mmHg | 0 in | - | - | - |
| 1788144306 | 77° F | 65% | 758.5 mmHg | 0 in | - | - | - |
| 1788143406 | 77° F | 67% | 758.4 mmHg | 0 in | - | - | - |
| 1788142506 | 77° F | 67% | 758.4 mmHg | 0 in | - | - | - |
| 1788141606 | 76° F | 69% | 758.3 mmHg | 0 in | - | - | - |
| 1788140707 | 77° F | 67% | 758.6 mmHg | 0 in | - | - | - |
| 1788139809 | 78° F | 65% | 758.5 mmHg | 0 in | - | - | - |
| 1788138907 | 78° F | 63% | 758.4 mmHg | 0 in | - | - | - |
| 1788138007 | 76° F | 65% | 758.4 mmHg | 0 in | - | - | - |
| 1788137106 | 77° F | 62% | 758.5 mmHg | 0 in | - | - | - |
| 1788136207 | 78° F | 62% | 758.3 mmHg | 0 in | - | - | - |
| 1788135307 | 77° F | 63% | 758.4 mmHg | 0 in | - | - | - |
| 1788134406 | 77° F | 66% | 758.3 mmHg | 0 in | - | - | - |
| 1788133506 | 76° F | 66% | 758.4 mmHg | 0 in | - | - | - |
| 1788132607 | 77° F | 62% | 758.2 mmHg | 0 in | - | - | - |
| 1788131706 | 79° F | 63% | 758.4 mmHg | 0 in | - | - | - |
* Rain latest hour (hover to see other rain measurements)
** Current wind speed in m/s (hover to see current wind gust speed)